CZ-4 DEB, 26222

Orbit data source: Space-Track

CZ-4 DEB, 26222 is space debris in SSO originally from a launch on Thu, 14 Oct 1999 UTC launched from the Taiyaun Space Center, China (TSC). Debris objects in space refer to the collection of defunct objects orbiting the Earth. Examples of debris include non-operational satellites, rocket bodies, and fragments generated from explosions, collisions, or faulty payload assembly.

Loading next visibility...
Identifier
26222, 1999-057DL
Orbit
SSO
Country
Flag of CNCN / PRC
Related business
Manufacturer
Unknown
Mission
Spacecraft
Bus & Motor
Unknown
Mass
Unknown
Launch date (UTC)
1999-10-14 (26 years ago)
Launch vehicle
Unknown
Launch site
Taiyaun Space Center, China (TSC)
Object type
Payload
Rocket body
Debris
Shape & HBR
Unknown shape, 2.0 m
Radar Cross Section
Large (>1 m²)

Expand to show TLE details & history
Last TLE update: 9 hours ago

TLE from 9 hours ago
0 CZ-4 DEB
1 26222U 99057DL  25291.89861515  .00002974  00000-0  69215-3 0  9994
2 26222  98.5119 344.3086 0070250 104.7728 256.1265 14.54123253348697
Epoch: 2025-10-18T21:34Z
TLE epoch observation values (Epoch: 2025-10-18T21:34:00.348Z)
Latitude
-0.00008°
Longitude
-6.81586°
Altitude
727.456 km
Speed
7.485 km/s
True Right ascension
22h 57m 14s
True Declination
0° 00' 00"
Sunlit
Object was in full shadow at epoch
Visualization orbit readout
Latitude
Unknown
Longitude
Unknown
Altitude
Unknown
Speed
Unknown
Apparent Right ascension
Unknown
Apparent Declination
Unknown
Sunlit
N/A
Visualization observer readout
Local Sidereal Time
01:16:35
Azimuth
Unknown
Elevation
Unknown
Doppler factor
Unknown
Orbital elements
Apogee altitude
759.106 km
Perigee altitude
659.527 km
Semi-major axis
7,087.454 km
Eccentricity
0.00703
Inclination
98.5119°
RAAN
344.3086°
Arg. of periapsis
104.7728°
True anomaly
255.34664°
Mean anomaly
256.1265°
Eccentric anomaly
255.73641°
Mean motion
3.63754 °/min
Orbital period
98.97 mins
BSTAR
0.00069215
Loading maneuver chart data...
Computing Atmospheric mass density...

Documentation

Showing up to 5 results
|